GW7146 Weather Reports


time (UTC)temp
F
wind
direction
speed
knots
gust
knots
rain 1hr
in
rain 24hr
in
rain mn
in
humidity
%
barometer
mb
20260507202508 61 276 5.2 11.3 0.00 1.21 1.21 86 998.2
20260507202010 61 286 2.6 10.4 0.00 1.21 1.21 86 998.3
20260507201526 61 257 4.3 10.4 0.00 1.21 1.21 85 998.3
20260507201010 61 261 7.0 10.4 0.00 1.21 1.21 85 998.4
20260507200510 61 259 4.3 12.2 0.00 1.21 1.21 85 998.3
20260507200025 61 266 4.3 15.6 0.00 1.21 1.21 85 998.7
20260507195503 61 267 7.0 15.6 0.00 1.21 1.21 85 998.8
20260507195003 61 251 7.8 13.0 0.00 1.21 1.21 85 998.6
20260507194510 61 249 5.2 12.2 0.00 1.21 1.21 85 998.5
20260507194007 61 278 7.0 17.4 0.00 1.21 1.21 84 998.7
20260507193507 61 243 10.4 17.4 0.00 1.21 1.21 84 998.8
20260507193016 62 270 7.0 13.0 0.00 1.21 1.21 84 998.8
20260507192509 61 245 6.1 12.2 0.00 1.21 1.21 85 998.7
20260507192008 61 270 5.2 12.2 0.00 1.21 1.21 85 998.4
20260507191520 61 284 5.2 14.8 0.00 1.21 1.21 86 998.7
20260507191011 61 272 5.2 14.8 0.00 1.21 1.21 86 999.0
20260507190510 62 253 6.1 13.9 0.00 1.21 1.21 85 999.0
20260507190023 62 250 7.0 18.2 0.00 1.21 1.21 86 998.8
20260507185510 62 249 9.6 18.2 0.00 1.21 1.21 85 998.9
20260507185009 63 265 12.2 16.5 0.00 1.21 1.21 85 998.9
20260507184512 63 244 4.3 8.7 0.00 1.21 1.21 86 998.9
20260507184005 63 251 4.3 12.2 0.00 1.21 1.21 87 998.8
20260507183504 63 262 6.1 12.2 0.00 1.21 1.21 87 998.8
20260507183012 63 231 6.1 12.2 0.00 1.21 1.21 88 998.6
20260507182508 63 267 7.0 11.3 0.00 1.21 1.21 89 998.5
20260507182008 63 258 3.5 8.7 0.00 1.21 1.21 89 998.2
20260507181516 63 258 4.3 8.7 0.00 1.21 1.21 89 997.9
20260507181006 63 270 2.6 7.0 0.00 1.21 1.21 89 997.3
20260507180511 63 296 4.3 7.0 0.00 1.21 1.21 89 996.9
20260507180022 63 337 1.7 7.0 0.00 1.21 1.21 89 996.8
20260507175509 63 9 2.6 7.8 0.00 1.21 1.21 89 997.2
20260507175008 62 336 4.3 7.8 0.00 1.21 1.21 89 997.6
20260507174526 62 322 2.6 7.0 0.00 1.21 1.21 90 997.9
20260507174009 62 332 3.5 9.6 0.00 1.21 1.21 90 997.9
20260507173510 62 339 5.2 9.6 0.00 1.21 1.21 90 997.2
20260507173010 62 2 4.3 8.7 0.00 1.21 1.21 90 997.4
20260507172507 62 3 4.3 9.6 0.00 1.21 1.21 90 997.4
20260507172006 61 347 4.3 9.6 0.00 1.21 1.21 89 997.4
20260507171513 61 19 3.5 10.4 0.00 1.21 1.21 90 997.3
20260507171008 61 335 3.5 12.2 0.00 1.21 1.21 89 997.6
20260507170510 61 8 5.2 13.0 0.00 1.21 1.21 89 998.2
20260507170022 61 291 6.1 13.0 0.00 1.21 1.21 90 998.7
20260507165510 61 334 5.2 11.3 0.01 1.21 1.21 90 998.7
20260507165014 61 328 3.5 12.2 0.01 1.21 1.21 90 998.6
20260507164522 61 290 3.5 12.2 0.01 1.21 1.21 90 998.3
20260507164008 61 312 6.1 10.4 0.01 1.21 1.21 90 998.6
20260507163510 61 318 5.2 10.4 0.01 1.21 1.21 91 998.8
20260507163028 61 308 5.2 9.6 0.02 1.21 1.21 91 999.0
20260507162510 62 2 6.1 10.4 0.02 1.21 1.21 91 998.9
20260507162004 62 290 7.8 10.4 0.02 1.21 1.21 91 999.0
20260507161513 62 322 5.2 8.7 0.02 1.21 1.21 91 998.9
20260507161008 62 281 4.3 11.3 0.03 1.21 1.21 91 999.0
20260507160506 62 281 5.2 11.3 0.03 1.21 1.21 91 999.2
20260507160020 62 289 4.3 9.6 0.03 1.21 1.21 91 999.7
20260507155509 62 310 4.3 9.6 0.02 1.20 1.20 91 1000.0
20260507155011 62 266 2.6 11.3 0.02 1.20 1.20 92 1000.1
20260507154523 62 287 6.1 11.3 0.02 1.20 1.20 92 1000.2
20260507154010 62 313 1.7 9.6 0.02 1.20 1.20 92 1000.1
20260507153508 62 281 5.2 9.6 0.02 1.20 1.20 92 1000.0
20260507153031 62 299 3.5 8.7 0.01 1.19 1.19 93 1000.0
20260507152510 62 319 2.6 6.1 0.01 1.19 1.19 93 999.8
20260507152011 62 297 2.6 7.0 0.01 1.19 1.19 93 1000.2
20260507151526 62 287 3.5 8.7 0.01 1.19 1.19 93 1000.3
20260507151010 62 322 3.5 8.7 0.00 1.17 1.17 93 1000.7
20260507150508 62 301 4.3 7.8 0.00 1.17 1.17 93 1001.2
20260507150014 62 310 3.5 8.7 0.01 1.17 1.17 93 1001.0
20260507145510 62 318 3.5 8.7 0.02 1.17 1.17 93 1000.4
20260507145009 62 295 6.1 8.7 0.03 1.17 1.17 93 1000.8
20260507144522 62 321 4.3 8.7 0.06 1.17 1.17 93 1000.5
20260507144010 62 321 4.3 9.6 0.07 1.17 1.17 92 1000.4
20260507143507 62 326 5.2 9.6 0.08 1.17 1.17 92 1000.5
20260507143026 62 316 5.2 9.6 0.09 1.17 1.17 92 1000.8
20260507142508 62 317 3.5 8.7 0.10 1.17 1.17 92 1000.7
20260507142010 62 345 2.6 11.3 0.10 1.17 1.17 92 1000.2
20260507141527 62 319 1.7 11.3 0.10 1.17 1.17 92 1000.4
20260507141010 62 309 4.3 10.4 0.10 1.17 1.17 92 1000.8
20260507140512 62 288 3.5 8.7 0.10 1.17 1.17 92 1000.5
20260507140030 62 289 5.2 8.7 0.09 1.16 1.16 92 999.7
20260507135507 62 316 5.2 12.2 0.08 1.16 1.16 92 999.5
20260507135006 62 276 7.0 13.9 0.07 1.15 1.15 91 999.8
20260507134520 62 242 7.0 13.9 0.04 1.12 1.12 91 1000.7
20260507134006 62 305 4.3 14.8 0.03 1.11 1.11 91 1001.2
20260507133510 62 286 7.0 14.8 0.02 1.10 1.10 90 1001.4
20260507133003 62 299 5.2 12.2 0.01 1.09 1.09 90 1001.0
20260507132505 62 283 6.1 10.4 0.00 1.08 1.08 90 1001.0
20260507132005 62 278 4.3 10.4 0.00 1.08 1.08 90 1000.7
20260507131504 62 270 1.7 7.8 0.00 1.08 1.08 90 999.6
20260507131004 62 249 4.3 7.8 0.00 1.08 1.08 90 999.5
20260507130507 62 299 4.3 13.9 0.00 1.08 1.08 89 1000.1
20260507130011 62 254 6.1 13.0 0.00 1.08 1.08 89 1000.5
20260507125504 62 288 6.1 15.6 0.00 1.08 1.08 89 1001.2
20260507125006 62 273 3.5 17.4 0.00 1.08 1.08 89 1001.5
20260507124519 62 256 11.3 17.4 0.00 1.08 1.08 89 1002.1
20260507124012 62 270 3.5 7.8 0.00 1.08 1.08 90 1000.7
20260507123511 62 209 2.6 10.4 0.00 1.08 1.08 90 1000.0
20260507123025 62 249 4.3 12.2 0.00 1.08 1.08 90 1000.6
20260507122505 62 272 5.2 12.2 0.00 1.08 1.08 90 1000.0
20260507122005 62 231 7.0 12.2 0.00 1.08 1.08 90 999.3
20260507121504 62 291 4.3 9.6 0.00 1.08 1.08 91 998.8
20260507121005 62 297 4.3 10.4 0.00 1.08 1.08 90 998.1
20260507120505 61 302 4.3 10.4 0.00 1.08 1.08 91 998.2
20260507120011 61 308 3.5 8.7 0.00 1.08 1.08 91 998.3
20260507115506 61 6 3.5 8.7 0.00 1.08 1.08 91 997.3
20260507115008 61 35 2.6 7.0 0.01 1.08 1.08 91 996.8
20260507114512 61 357 2.6 7.8 0.01 1.08 1.08 91 996.7
20260507114008 61 329 2.6 8.7 0.01 1.08 1.08 91 996.9
20260507113506 61 304 3.5 8.7 0.01 1.08 1.08 91 997.1
20260507113020 61 16 4.3 7.8 0.01 1.08 1.08 91 997.3
20260507112507 61 353 4.3 13.0 0.01 1.08 1.08 90 997.6
20260507112010 61 344 4.3 13.0 0.01 1.08 1.08 90 997.4
20260507111506 61 356 3.5 9.6 0.01 1.08 1.08 90 997.3
20260507111002 61 1 4.3 9.6 0.02 1.08 1.08 90 996.9
20260507110502 61 345 3.5 7.0 0.02 1.08 1.08 91 996.1
20260507110012 61 32 0.9 7.0 0.02 1.08 1.08 91 996.0
20260507105503 61 12 2.6 9.6 0.04 1.08 1.08 91 995.9
20260507105004 62 27 3.5 9.6 0.04 1.07 1.07 91 996.5
20260507104520 62 333 4.3 10.4 0.05 1.07 1.07 91 996.4
20260507104008 61 1 6.1 10.4 0.06 1.07 1.07 91 996.2
20260507103507 61 20 5.2 8.7 0.06 1.07 1.07 91 996.0
20260507103022 61 8 4.3 8.7 0.06 1.07 1.07 91 995.7
20260507102509 61 48 1.7 7.8 0.06 1.07 1.07 92 995.4
20260507102008 62 337 3.5 7.0 0.06 1.07 1.07 92 995.5
20260507101536 62 3 3.5 7.0 0.06 1.07 1.07 92 995.8
20260507101008 62 41 2.6 6.1 0.05 1.05 1.05 92 996.0
20260507100510 62 85 1.7 6.1 0.06 1.05 1.05 92 996.4
20260507100005 62 31 2.6 6.1 0.06 1.05 1.05 92 998.5
20260507095505 62 330 0.9 3.5 0.04 1.04 1.04 91 998.5
20260507095008 62 14 1.7 3.5 0.04 1.03 1.03 91 998.4
20260507094508 62 29 0.9 2.6 0.03 1.02 1.02 91 998.5
20260507094003 62 341 1.7 2.6 0.03 1.01 1.01 91 999.4
20260507093507 63 359 0.9 5.2 0.04 1.01 1.01 90 999.1
20260507093020 63 335 2.6 5.2 0.05 1.01 1.01 90 999.6
20260507092509 63 322 0.9 5.2 0.05 1.01 1.01 90 998.6
20260507092009 63 247 1.7 7.8 0.06 1.01 1.01 89 998.0
20260507091536 63 101 1.7 7.8 0.06 1.01 1.01 89 996.1
20260507091007 63 125 3.5 7.8 0.07 1.01 1.01 88 996.8
20260507090511 63 122 3.5 8.7 0.07 1.00 1.00 88 998.1
20260507090022 63 200 3.5 8.7 0.09 1.00 1.00 88 998.6
20260507085508 63 153 3.5 8.7 0.10 1.00 1.00 88 998.7
20260507085005 64 215 2.6 10.4 0.10 0.99 0.99 88 999.1
20260507084508 64 257 5.2 10.4 0.11 0.99 0.99 88 999.0
20260507084004 64 206 4.3 12.2 0.11 0.98 0.98 87 999.7
20260507083507 65 252 6.1 11.3 0.11 0.97 0.97 87 1000.0
20260507083015 65 220 7.0 13.9 0.10 0.96 0.96 87 1000.1
20260507082506 65 220 6.1 17.4 0.10 0.96 0.96 87 1000.3
20260507082005 65 231 7.0 17.4 0.10 0.95 0.95 87 1000.7
20260507081540 65 243 7.0 16.5 0.10 0.95 0.95 87 1000.8
20260507081007 65 180 9.6 22.6 0.09 0.94 0.94 86 1000.7
20260507080024 66 241 10.4 20.0 0.06 0.91 0.91 84 1001.0
20260507075507 66 205 8.7 17.4 0.05 0.90 0.90 86 1001.1
20260507075014 66 261 6.1 15.6 0.04 0.89 0.89 88 1001.3
20260507074530 65 254 10.4 15.6 0.04 0.88 0.88 89 1001.4
20260507074007 65 248 5.2 11.3 0.04 0.87 0.87 92 1001.4
20260507073505 65 239 4.3 7.8 0.06 0.86 0.86 92 1001.2
20260507073010 65 289 3.5 7.8 0.11 0.86 0.86 92 1001.0
20260507072509 65 284 5.2 7.8 0.20 0.86 0.86 92 1001.1
20260507072007 65 274 3.5 7.8 0.28 0.85 0.85 92 1000.9
20260507071520 65 287 3.5 7.0 0.57 0.85 0.85 92 1000.7
20260507071006 65 278 3.5 9.6 0.68 0.85 0.85 92 1000.3
20260507070508 65 263 3.5 9.6 0.73 0.85 0.85 92 1000.2
20260507070017 65 283 5.2 13.0 0.82 0.85 0.85 92 1000.3
20260507065509 65 219 6.1 13.9 0.82 0.85 0.85 92 1000.4
20260507065007 65 236 7.8 13.9 0.82 0.85 0.85 92 1000.7
20260507064526 65 254 7.0 15.6 0.84 0.84 0.84 92 1000.8
20260507064011 65 265 7.0 23.5 0.83 0.83 0.83 92 1001.7
20260507063511 65 285 11.3 19.1 0.80 0.80 0.80 92 1002.3
20260507063027 65 278 8.7 23.5 0.75 0.75 0.75 92 1002.0
20260507062508 65 258 9.6 23.5 0.66 0.66 0.66 92 1001.9
20260507062007 65 273 9.6 20.0 0.57 0.57 0.57 92 1002.3
20260507061527 65 262 10.4 17.4 0.28 0.28 0.28 91 1002.5
20260507061006 65 269 1.7 10.4 0.17 0.17 0.17 90 1000.5
20260507060507 65 228 3.5 12.2 0.12 0.12 0.12 90 1000.4
20260507060026 66 249 5.2 13.0 0.03 0.03 0.03 89 1000.2
20260507055506 66 252 4.3 13.0 0.03 0.03 0.03 87 1000.2
20260507055006 67 189 6.1 13.0 0.03 0.03 0.03 84 1000.4
20260507054524 68 233 6.1 17.4 0.00 0.00 0.00 81 1000.7
20260507054007 68 202 6.1 22.6 0.00 0.00 0.00 80 1000.7
20260507053510 69 218 10.4 22.6 0.00 0.00 0.00 80 1000.8
20260507053026 69 218 11.3 20.9 0.00 0.00 0.00 80 1000.7
20260507052508 70 207 8.7 17.4 0.00 0.00 0.00 79 1001.0
20260507052008 72 224 9.6 18.2 0.00 0.00 0.00 76 1001.0
20260507051510 76 189 9.6 18.2 0.00 0.00 0.00 76 1000.4
20260507051009 76 320 6.1 13.0 0.00 0.00 0.00 79 999.3
20260507050506 76 2 7.0 13.0 0.00 0.00 0.00 79 999.1
20260507050028 76 308 6.1 13.0 0.00 0.00 0.00 79 999.1
20260507045506 76 316 6.1 14.8 0.00 0.00 0.00 79 999.1
20260507045006 76 300 7.8 14.8 0.00 0.00 0.00 78 999.1
20260507044534 76 320 5.2 11.3 0.00 0.00 0.00 78 999.1
20260507044014 76 314 5.2 11.3 0.00 0.00 0.00 78 998.9
20260507043509 76 4 5.2 11.3 0.00 0.00 0.00 79 998.8
20260507043022 76 320 6.1 9.6 0.00 0.00 0.00 79 999.2
20260507042516 76 335 4.3 7.8 0.00 0.00 0.00 79 999.5
20260507042008 76 326 4.3 7.0 0.00 0.00 0.00 79 999.5
20260507041528 76 335 3.5 10.4 0.00 0.00 0.00 79 999.6
20260507041008 76 321 2.6 10.4 0.00 0.00 0.00 79 999.6
20260507040511 76 358 2.6 9.6 0.00 0.00 0.00 78 999.7
20260507040012 77 351 4.3 9.6 0.00 0.00 0.00 78 999.8
20260507035507 77 3 4.3 8.7 0.00 0.00 0.00 78 1000.0
20260507035008 76 348 5.2 11.3 0.00 0.00 0.00 79 1000.2
20260507034516 76 3 7.0 12.2 0.00 0.00 0.00 79 1000.2
20260507034009 76 22 4.3 12.2 0.00 0.00 0.00 80 1000.2
20260507033508 76 33 4.3 10.4 0.00 0.00 0.00 81 1000.1
20260507033021 76 4 5.2 10.4 0.00 0.00 0.00 81 999.9
20260507032509 75 25 2.6 7.8 0.00 0.00 0.00 82 999.9
20260507032010 75 337 2.6 7.0 0.00 0.00 0.00 82 1000.0
20260507031526 75 296 1.7 8.7 0.00 0.00 0.00 83 999.8
20260507031011 75 334 3.5 9.6 0.00 0.00 0.00 83 999.9
20260507030515 75 12 2.6 11.3 0.00 0.00 0.00 83 1000.1
20260507030028 75 351 3.5 11.3 0.00 0.00 0.00 84 1000.0
20260507025508 75 7 4.3 9.6 0.00 0.00 0.00 84 1000.0
20260507025007 75 5 2.6 7.8 0.00 0.00 0.00 84 1000.0
20260507024516 75 9 1.7 7.8 0.00 0.00 0.00 84 1000.0
20260507024007 75 351 4.3 10.4 0.00 0.00 0.00 84 1000.1
20260507023510 75 360 4.3 10.4 0.00 0.00 0.00 84 1000.2
20260507023020 75 355 4.3 10.4 0.00 0.00 0.00 84 1000.2
20260507022510 75 346 3.5 10.4 0.00 0.00 0.00 84 1000.2
20260507022010 75 360 3.5 12.2 0.00 0.00 0.00 84 1000.2
20260507021525 75 333 6.1 12.2 0.00 0.00 0.00 84 1000.3
20260507021013 75 315 6.1 13.9 0.00 0.00 0.00 84 1000.1
20260507020507 75 27 7.0 14.8 0.00 0.00 0.00 83 1000.2
20260507020031 75 316 5.2 14.8 0.00 0.00 0.00 83 1000.2
20260507015508 76 347 5.2 16.5 0.00 0.00 0.00 83 1000.2
20260507015012 76 27 8.7 14.8 0.00 0.00 0.00 82 1000.3
20260507014528 76 18 6.1 20.0 0.00 0.00 0.00 82 1000.2
20260507014005 76 2 6.1 20.0 0.00 0.00 0.00 82 1000.2
20260507013508 76 344 6.1 21.7 0.00 0.00 0.00 82 1000.5
20260507013016 76 298 7.0 21.7 0.00 0.00 0.00 83 1000.3
20260507012514 75 287 8.7 19.1 0.00 0.00 0.00 84 1000.2
20260507012010 75 10 7.8 20.0 0.00 0.00 0.00 85 999.9
20260507011529 75 16 8.7 20.0 0.00 0.00 0.00 85 1000.0
20260507011015 75 6 8.7 15.6 0.00 0.00 0.00 85 1000.0
20260507010511 75 6 7.8 15.6 0.00 0.00 0.00 85 1000.2
20260507010024 75 45 8.7 14.8 0.00 0.00 0.00 86 1000.7
20260507005513 75 7 7.8 14.8 0.00 0.00 0.00 86 1000.9
20260507005009 75 17 7.0 13.9 0.00 0.00 0.00 86 1001.2
20260507004527 74 334 7.0 13.9 0.00 0.00 0.00 86 1001.3
20260507004008 74 49 7.0 13.9 0.00 0.00 0.00 86 1001.5
20260507003512 74 297 7.8 14.8 0.00 0.00 0.00 87 1001.3
20260507003028 74 360 6.1 16.5 0.00 0.00 0.00 87 1001.2
20260507002508 74 22 7.0 16.5 0.00 0.00 0.00 87 1001.1
20260507002009 74 36 6.1 11.3 0.00 0.00 0.00 87 1001.3
20260507001521 74 35 5.2 16.5 0.00 0.00 0.00 87 1001.6
20260507001007 74 310 7.0 16.5 0.00 0.00 0.00 87 1001.8
20260507000510 74 344 7.0 13.9 0.00 0.00 0.00 86 1002.2
20260507000027 74 360 6.1 10.4 0.00 0.00 0.00 86 1002.5
20260506235510 74 16 5.2 10.4 0.00 0.00 0.00 86 1002.9
20260506235008 74 20 4.3 11.3 0.00 0.00 0.00 86 1003.2
20260506234528 74 16 5.2 13.0 0.00 0.00 0.00 86 1003.5
20260506234009 74 32 5.2 13.0 0.00 0.00 0.00 86 1003.8
20260506233509 74 35 4.3 12.2 0.00 0.00 0.00 85 1003.9
20260506233028 74 20 5.2 12.2 0.00 0.00 0.00 85 1004.1
20260506232509 74 1 5.2 10.4 0.00 0.00 0.00 85 1004.2
20260506232010 74 20 3.5 9.6 0.00 0.00 0.00 85 1004.3
20260506231518 74 306 3.5 10.4 0.00 0.00 0.00 85 1004.5
20260506231008 74 17 4.3 10.4 0.00 0.00 0.00 84 1004.6
20260506230508 74 45 3.5 9.6 0.00 0.00 0.00 84 1004.7
20260506230020 75 280 3.5 7.8 0.00 0.00 0.00 84 1004.8
20260506225509 75 14 3.5 10.4 0.00 0.00 0.00 84 1005.1
20260506225010 75 18 1.7 10.4 0.00 0.00 0.00 84 1005.2
20260506224525 75 343 4.3 7.8 0.00 0.00 0.00 84 1005.2
20260506224008 75 72 1.7 7.8 0.00 0.00 0.00 84 1005.3
20260506223508 75 14 2.6 7.8 0.00 0.00 0.00 83 1005.3
20260506223012 75 2 2.6 7.8 0.00 0.00 0.00 83 1005.3
20260506222506 75 9 2.6 7.8 0.00 0.00 0.00 83 1005.4
20260506222009 75 42 3.5 7.8 0.00 0.00 0.00 83 1005.5
20260506221515 75 355 1.7 9.6 0.00 0.00 0.00 83 1005.5
20260506221008 75 3 3.5 9.6 0.00 0.00 0.00 82 1005.4
20260506220509 75 107 4.3 9.6 0.00 0.00 0.00 82 1005.4
20260506220030 75 18 3.5 8.7 0.00 0.00 0.00 82 1005.4
20260506215508 75 20 3.5 7.8 0.00 0.00 0.00 82 1005.5
20260506215003 75 339 2.6 7.0 0.00 0.00 0.00 82 1005.4
20260506214503 75 304 1.7 7.0 0.00 0.00 0.00 82 1005.3
20260506214004 75 35 2.6 7.0 0.00 0.00 0.00 81 1005.3
20260506213503 76 39 1.7 7.0 0.00 0.00 0.00 81 1005.4
20260506213015 76 17 2.6 7.8 0.00 0.00 0.00 81 1005.4
20260506212507 76 32 2.6 9.6 0.00 0.00 0.00 81 1005.4
20260506212006 76 345 3.5 9.6 0.00 0.00 0.00 80 1005.3
20260506211513 76 30 1.7 6.1 0.00 0.00 0.00 80 1005.3
20260506211006 76 41 2.6 6.1 0.00 0.00 0.00 80 1005.3
20260506210506 76 25 1.7 8.7 0.00 0.00 0.00 80 1005.3
20260506210020 76 326 2.6 8.7 0.00 0.00 0.00 79 1005.4
20260506205509 76 11 3.5 8.7 0.00 0.00 0.00 79 1005.3
20260506205009 77 60 3.5 7.0 0.00 0.00 0.00 79 1005.3
20260506204526 77 358 2.6 7.0 0.00 0.00 0.00 78 1005.2
20260506204011 77 343 2.6 7.0 0.00 0.00 0.00 78 1005.3
20260506203503 77 56 1.7 8.7 0.00 0.00 0.00 77 1005.4
20260506203010 78 360 1.7 8.7 0.00 0.00 0.00 77 1005.4